Hourly Data Report for January 06, 2013

BAGOTVILLE A
QUEBEC

48°20'00.000" N
71°00'00.000" W
159.10 m
7060400
71727
YBG

Download Data

Hourly Data (January 2013)
Hourly Data Report for January 6, 2013
TIME
LST
Temp Definition
°C
Dew Point Definition
°C
Rel Hum Definition
%
Precip. Amount Definition
mm

Wind Dir Definition
10's deg

Wind Spd Definition
km/h
Visibility Definition
km
Stn Press Definition
kPa
Hmdx Definition


Wind Chill Definition


Weather Definition


00:00 -23.6 -27.2 72   17 4 24.1 100.08   -27 Mainly Clear
01:00 -23.1 -25.6 80     0 24.1 100.01     Mostly Cloudy
02:00 -24.3 -26.9 79     0 24.1 99.98     Mostly Cloudy
03:00 -22.9 -25.4 80     0 24.1 99.86     Mostly Cloudy
04:00 -22.7 -25.2 80   18 4 24.1 99.79   -26 Mostly Cloudy
05:00 -22.5 -25.0 80     0 24.1 99.73     Mostly Cloudy
06:00 -22.3 -24.7 81     0 24.1 99.75     Mostly Cloudy
07:00 -23.1 -25.6 80     0 24.1 99.78     Mostly Cloudy
08:00 -24.1 -27.8 71     0 40.2 99.79     Mostly Cloudy
09:00 -21.8 -25.1 75     0 40.2 99.80     Mostly Cloudy
10:00 -18.4 -23.4 65     0 40.2 99.82     Mainly Clear
11:00 -15.0 -19.7 67   30 4 40.2 99.76   -18 Mostly Cloudy
12:00 -14.6 -19.8 65   28 13 40.2 99.69   -22 Mostly Cloudy
13:00 -13.4 -18.2 67   32 9 40.2 99.66   -19 Mostly Cloudy
14:00 -13.2 -16.8 74   30 11 40.2 99.65   -19 Mostly Cloudy
15:00 -14.0 -17.8 73   30 13 40.2 99.70   -21 Mostly Cloudy
16:00 -15.2 -18.1 78   31 13 40.2 99.75   -23 Mostly Cloudy
17:00 -17.8 -21.9 70   27 11 24.1 99.85   -25 Mostly Cloudy
18:00 -17.6 -21.6 71   27 11 24.1 99.90   -25 Mainly Clear
19:00 -18.8 -23.1 69   26 15 24.1 99.94   -28 Mainly Clear
20:00 -18.6 -22.1 74   27 15 24.1 100.01   -27 Mainly Clear
21:00 -19.6 -22.5 78   27 11 24.1 100.02   -27 Mainly Clear
22:00 -20.1 -23.1 77   28 11 24.1 100.09   -28 Mainly Clear
23:00 -21.3 -23.7 81   28 13 24.1 100.16   -30 Mainly Clear

Notes on Data Quality.

Legend

  • E = Estimated
  • M = Missing
  • NA = Not Available*
  • [empty] = Indicates an unobserved value
Date modified: